Location: Gleizolles
(44.4833°N, 6.7667°E)
Time: 21:58:05
(UTC+00:00)

COSMOS 2406 - Pass Details

Date: 09 April 2020
Orbit: 842 x 865 km, 71.0° (Epoch: 25 May)

Event Time Altitude Azimuth Distance (km) Brightness Sun altitude
Exits shadow 20:55:04 42° 211° (SSW) 1,183 3.8 -26.4°
Maximum altitude 20:57:03 83° 295° (WNW) 860 3.1 -26.7°
Drops below altitude 10° 21:02:48 10° 24° (NNE) 2,490 5.9 -27.4°
Sets 21:05:16 0° 26° (NNE) 3,433 6.6 -27.7°
